Regional Weather Roundup
Issued by NWS

Home | Current Version | Previous Version | Text Only | Print | Product List | Glossary On
Versions: 1 2 3 4 5 6 7 8 9 10 11 12 13 14 15 16 17 18 19 20 21 22 23 24 25 26 27 28 29 30 31 32 33 34 35 36 37 38 39 40 41 42 43 44 45 46 47 48 49 50
000
ASUS43 KDMX 300406
RWRIA

WEATHER ROUNDUP FOR IOWA
NATIONAL WEATHER SERVICE DES MOINES IA
1100 PM CDT WED MAR 29 2017

NOTE: "FAIR" INDICATES FEW OR NO CLOUDS BELOW 12,000 FEET WITH NO
SIGNIFICANT WEATHER AND/OR OBSTRUCTIONS TO VISIBILITY.

* - THESE STATIONS ARE NOT NWS STATIONS...THUS NOT UNDER NWS
QUALITY CONTROL.  THEY ALSO DO NOT REPORT WEATHER SUCH
AS PRECIPITATION OR FOG.

IAZ001>003-012>014-020>022-031>034-043>046-300500-
   NORTHWEST IOWA

CITY           SKY/WX    TMP DP  RH WIND       PRES   REMARKS
CARROLL *      CLOUDY    41  41 100 E26G33    29.85F
CHEROKEE *     CLOUDY    39  38  95 E22G33    29.90F WCI  28
DENISON *      CLOUDY    41  39  93 E18G33    29.86S
LE MARS *      CLOUDY    41  37  87 E20G32    29.93F
ORANGE CITY *  CLOUDY    39  37  93 E12G18    29.93F WCI  32
SHELDON *      CLOUDY    39  37  93 E17G25    29.94F WCI  30
SIOUX CITY     CLOUDY    41  38  89 E18G29    29.88F
SPENCER        CLOUDY    40  37  89 E23G33    29.95F WCI  30
STORM LAKE *   CLOUDY    37  37 100 E30       29.89F WCI  25
$$

IAZ055>058-069>071-079>083-090>094-300500-
   SOUTHWEST IOWA

CITY           SKY/WX    TMP DP  RH WIND       PRES   REMARKS
ATLANTIC *     CLOUDY    43  43 100 NE12      29.81R
AUDUBON *      CLOUDY    41  37  87 NE14      29.84R
CLARINDA *     CLOUDY    46  46 100 NE10      29.76F
COUNCIL BLFS * CLOUDY    43  43 100 NE18G26   29.80R
CRESTON *      CLOUDY    45  43  93 E21       29.78R
HARLAN  *      CLOUDY    41  41 100 NE18G28   29.85S
LAMONI         CLOUDY    47  45  93 NE16G26   29.76S
RED OAK *      LGT RAIN  46  45  93 NE9       29.79R
SHENANDOAH *   LGT RAIN  46  45  93 NE22G28   29.73F
$$

IAZ047>049-059>061-072>074-084-300500-
   CENTRAL IOWA

CITY           SKY/WX    TMP DP  RH WIND       PRES   REMARKS
AMES           LGT RAIN  41  41 100 E16G26    29.86F
ANKENY *       CLOUDY    43  41  93 E21G31    29.85F
BOONE *        LGT RAIN  39  39 100 E30G41    29.82F WCI  27
CHARITON *     CLOUDY    45  43  93 NE14      29.81F
DES MOINES     PTCLDY    44  41  89 E22G29    29.84F
GRINNELL*      RAIN      41  40  95 NE16G25   29.91R
MARSHALLTOWN   HVY RAIN  40  39  97 E16G24    29.94R FOG     WCI  31
NEWTON *       CLOUDY    43  41  93 NE12      29.91R FOG
PELLA *        MIX PCPN  43  41  95 NE8       29.89R
PERRY *        CLOUDY    42  40  93 E29G36    29.82F
$$

IAZ004>006-015-016-023>025-035-036-300500-
   NORTH CENTRAL IOWA

CITY           SKY/WX    TMP DP  RH WIND       PRES   REMARKS
ALGONA *       LGT RAIN  39  39 100 E22G28    29.95F WCI  29
CLARION *      CLOUDY    39  39 100 E20G29    29.96R FOG     WCI  30
ESTHERVILLE    CLOUDY    39  37  92 E23G31    29.97F WCI  28
FORT DODGE *   CLOUDY    39  36  87 E23G33    29.92F WCI  29
MASON CITY     LGT RAIN  38  36  92 E22G32    30.00F FOG     WCI  27
FOREST CITY *  LGT RAIN  37  36  93 E17G25    29.99S WCI  28
WEBSTER CITY * MIX PCPN  39  39 100 E23       29.92F WCI  29
IOWA FALLS *   LGT RAIN  40  38  93 E21G26    29.97R WCI  30
$$

IAZ007>011-017>019-026>030-037>042-050>054-066-300500-
   NORTHEAST IOWA

CITY           SKY/WX    TMP DP  RH WIND       PRES   REMARKS
CEDAR RAPIDS   LGT RAIN  41  41 100 E25G33    29.87F
CHARLES CITY * CLOUDY    39  39 100 E23G32    29.98F FOG     WCI  29
CLINTON *      CLOUDY    42  39  89 E25G32    29.93F
DECORAH *      LGT RAIN  39  37  93 E13       30.01S WCI  32
DUBUQUE        CLOUDY    39  37  92 NE17G33   29.97F WCI  30
MONTICELLO *   MIX PCPN  41  39  93 E22G36    29.92F
OELWEIN *      MIX PCPN  39  39 100 E26G35    29.94F WCI  28
WATERLOO       CLOUDY    40  37  89 E22G29    29.95R FOG     WCI  30
$$

IAZ064-065-067-068-078-300500-
   EAST CENTRAL IOWA

CITY           SKY/WX    TMP DP  RH WIND       PRES   REMARKS
DAVENPORT      CLOUDY    42  39  89 E24G35    29.92F
IOWA CITY      HVY RAIN  44  40  85 E21G29    29.91F FOG
MUSCATINE *    CLOUDY    45  41  87 NE12G18   29.89F
QUAD CITIES    LGT RAIN  43  39  86 E21G31    29.90F
$$

IAZ062-063-075>077-085>089-095>099-300500-
   SOUTHEAST IOWA

CITY           SKY/WX    TMP DP  RH WIND       PRES   REMARKS
BURLINGTON     LGT RAIN  47  45  93 E20G29    29.79F FOG
FAIRFIELD *    CLOUDY    45  43  93 E20G29    29.80F FOG
FORT MADISON * RAIN      46  45  93 E16G28    29.80F
KEOKUK *       CLOUDY    48  46  93 E14G24    29.77F
OSKALOOSA *    LGT RAIN  43  41  94 E18G24    29.85R
CENTERVILLE *  LGT RAIN  46  45  93 NE6       29.81S
OTTUMWA        CLOUDY    45  44  97 E17       29.84R
WASHINGTON *   LGT RAIN  43  43 100 E25       29.85F
$$

ABBREVIATIONS USED IN REMARKS
   TC - TEMPERATURES IN CELSIUS
  WCI - WIND CHILL INDEX
   HX - HEAT INDEX
  VSB - VISIBILITY
$$





USA.gov is the U.S. government's official web portal to all federal, state and local government web resources and services.